Location: Azul
(36.7830°S, 59.8500°W)
Time: 08:43:51
(UTC-03:00)

DOVE 4 - Pass Details

Date: 28 October 2021
Orbit: 588 x 799 km, 97.8° (Epoch: 07 December)

Event Time Altitude Azimuth Distance (km) Brightness Sun altitude
Exits shadow 00:39:05 21° 192° (SSW) 1,737 ? -40.0°
Drops below altitude 10° 00:40:49 10° 192° (SSW) 2,405 ? -40.0°
Sets 00:43:12 0° 192° (SSW) 3,341 ? -40.0°
